Weather in Osnabruck

Germany     52°16′54″N   8°02′34″E
temp.,
°C
wind,
m/s
gust,
m/s
humid.,
%
clouds,
%
prec.,
mm/h
press.,
hPa
HPBL,
m
18 august, thu
thu1823:00+19wnw138745 0.4 1012128
02:00+18wsw2591100 0.5 1012170
05:00+17wsw2592100 0.0 1012194
08:00+17wsw3690100 0.0 1013333
11:00+20w3475100 0.0 1014726
14:00+25w3355100 0.1 10131355
17:00+23nw346893 0.8 1013342
20:00+20n478328 2.9 1013399
19 august, fri
fri1923:00+18nne26935 0.0 1014187
02:00+16ne12949 0.0 101483
05:00+15nw11947 0.0 101437
08:00+17nnw12851 0.0 1015144
11:00+22nw23570 0.0 1015767
14:00+27wnw33415 0.0 10141805
17:00+28wnw233797 0.0 10131939
20:00+24n3649100 0.0 1013416
20 august, sat
sat2023:00+21n116089 0.0 101417
02:00+20wnw226986 0.0 101458
05:00+18wnw128978 0.6 1015101
08:00+18w2490100 0.8 1016281
11:00+20wsw3478100 0.2 1016691
14:00+24wnw345198 1.2 10161721
17:00+24nw1245100 0.0 1015891
20:00+23nne2243100 0.0 101584
21 august, sun
sun2123:00+19ene376897 0.0 1016266
02:00+17e257473 0.0 1015122
05:00+16se118290 0.0 101421
08:00+17wsw2376100 0.0 1015210
11:00+22w344494 0.0 1014770
14:00+25w353190 0.0 10142064
17:00+25wnw453199 0.0 10132327
20:00+23nnw4537100 0.0 1014682
22 august, mon
mon2223:00+18n386386 0.0 1016317
02:00+16nnw25778 0.0 1017170
05:00+14nw12850 0.0 101890
08:00+16nnw13780 0.0 1019209
11:00+21nnw22504 0.0 10191104
14:00+24nw22335 0.0 10181949
17:00+25nnw2227100 0.0 10182349
20:00+22n3534100 0.0 1018409